Location: Frizzleburg
(41.0764°N, 80.4548°W)
Time: 05:50:51
(UTC+00:00)

Cosmos 2322 Rocket - Pass Details

Date: 17 November 2019
Orbit: 832 x 851 km, 71.0° (Epoch: 15 December)

Event Time Altitude Azimuth Distance (km) Brightness Sun altitude
Exits shadow 10:06:43 10° 348° (NNW) 2,479 4.5 -23.5°
Reaches altitude 10° 10:06:45 10° 348° (NNW) 2,468 4.4 -23.4°
Maximum altitude 10:12:10 45° 60° (ENE) 1,145 3.2 -22.4°
Drops below altitude 10° 10:17:34 10° 133° (SE) 2,466 5.4 -21.4°
Sets 10:20:07 0° 139° (SE) 3,400 6.1 -20.9°
